STARLINK-36953

Last updated on Mon Mar 30 2026 00:02:05 GMT+0000 (Coordinated Universal Time)

1 68010U 26039AA 26088.16668981 .00053419 00000+0 19377-2 0 9994 2 68010 42.9996 298.7400 0001903 277.0943 103.2222 15.27563510 6004
UTC large
Height (km)
Speed (km/s)
/
Latitude / Longitude
Inclination (degrees)
Orbital Period (minutes)
Azimuth
Elevation
Range (km)
Doppler Factor

Next 0 passes for location: London (51.5072 / 0.1276)

Sorry there are no passes over London.